| time (UTC) | temp F | wind direction | speed MPH | gust MPH | rain 1hr in | rain 24hr in | rain mn in | humidity % | barometer mb |
| 20260507161600 | 53 | 343 | 3.0 | 3.0 | 0.00 | 0.00 | 0.00 | 33 | 1012.6 |
| 20260507161057 | 54 | 70 | 2.0 | 2.0 | 0.00 | 0.00 | 0.00 | 32 | 1012.8 |
| 20260507160554 | 54 | 178 | 3.0 | 3.0 | 0.00 | 0.00 | 0.00 | 35 | 1012.7 |
| 20260507160050 | 52 | 156 | 0.0 | 0.0 | 0.00 | 0.00 | 0.00 | 34 | 1012.8 |
| 20260507155545 | 53 | 142 | 3.0 | 3.0 | 0.00 | 0.00 | 0.00 | 34 | 1012.7 |
| 20260507155043 | 52 | 199 | 2.0 | 3.0 | 0.00 | 0.00 | 0.00 | 35 | 1012.9 |
| 20260507154540 | 52 | 245 | 5.0 | 7.0 | 0.00 | 0.00 | 0.00 | 35 | 1013.1 |
| 20260507154037 | 52 | 338 | 4.0 | 5.0 | 0.00 | 0.00 | 0.00 | 36 | 1012.7 |
| 20260507153534 | 52 | 138 | 5.0 | 7.0 | 0.00 | 0.00 | 0.00 | 33 | 1012.7 |
| 20260507153030 | 52 | 354 | 2.0 | 3.0 | 0.00 | 0.00 | 0.00 | 38 | 1012.8 |
| 20260507152525 | 52 | 166 | 0.0 | 0.0 | 0.00 | 0.00 | 0.00 | 37 | 1012.9 |
| 20260507152022 | 51 | 151 | 0.0 | 0.0 | 0.00 | 0.00 | 0.00 | 37 | 1012.9 |
| 20260507151518 | 51 | 185 | 0.0 | 0.0 | 0.00 | 0.00 | 0.00 | 37 | 1013.1 |
| 20260507151015 | 51 | 289 | 2.0 | 3.0 | 0.00 | 0.00 | 0.00 | 40 | 1013.1 |
| 20260507150512 | 51 | 100 | 4.0 | 5.0 | 0.00 | 0.00 | 0.00 | 38 | 1013.1 |
| 20260507150009 | 50 | 192 | 2.0 | 2.0 | 0.00 | 0.00 | 0.00 | 38 | 1012.8 |
| 20260507145504 | 50 | 177 | 2.0 | 3.0 | 0.00 | 0.00 | 0.00 | 39 | 1012.7 |
| 20260507145002 | 49 | 130 | 3.0 | 3.0 | 0.00 | 0.00 | 0.00 | 40 | 1013.1 |
| 20260507144458 | 49 | 165 | 0.0 | 2.0 | 0.00 | 0.00 | 0.00 | 41 | 1013.1 |
| 20260507143955 | 49 | 156 | 0.0 | 2.0 | 0.00 | 0.00 | 0.00 | 41 | 1013.1 |
| 20260507143453 | 49 | 346 | 1.0 | 2.0 | 0.00 | 0.00 | 0.00 | 41 | 1013.1 |
| 20260507142949 | 48 | 181 | 1.0 | 2.0 | 0.00 | 0.00 | 0.00 | 41 | 1013.1 |
| 20260507142445 | 48 | 164 | 2.0 | 3.0 | 0.00 | 0.00 | 0.00 | 41 | 1013.3 |
| 20260507141943 | 47 | 169 | 0.0 | 0.0 | 0.00 | 0.00 | 0.00 | 44 | 1013.2 |
| 20260507141438 | 47 | 89 | 3.0 | 3.0 | 0.00 | 0.00 | 0.00 | 45 | 1013.2 |
| 20260507140935 | 47 | 163 | 0.0 | 2.0 | 0.00 | 0.00 | 0.00 | 46 | 1013.3 |
| 20260507140432 | 47 | 144 | 2.0 | 3.0 | 0.00 | 0.00 | 0.00 | 44 | 1013.2 |
| 20260507135930 | 48 | 213 | 1.0 | 2.0 | 0.00 | 0.00 | 0.00 | 45 | 1013.2 |
| 20260507135426 | 47 | 157 | 0.0 | 0.0 | 0.00 | 0.00 | 0.00 | 46 | 1013.1 |
| 20260507134924 | 46 | 160 | 1.0 | 2.0 | 0.00 | 0.00 | 0.00 | 49 | 1013.2 |
| 20260507134420 | 45 | 194 | 2.0 | 3.0 | 0.00 | 0.00 | 0.00 | 50 | 1013.5 |
| 20260507133916 | 44 | 238 | 0.0 | 2.0 | 0.00 | 0.00 | 0.00 | 52 | 1013.3 |
| 20260507133412 | 43 | 179 | 1.0 | 2.0 | 0.00 | 0.00 | 0.00 | 54 | 1013.3 |
| 20260507132911 | 43 | 110 | 1.0 | 2.0 | 0.00 | 0.00 | 0.00 | 57 | 1013.4 |
| 20260507132407 | 42 | 163 | 0.0 | 0.0 | 0.00 | 0.00 | 0.00 | 59 | 1013.4 |
| 20260507131905 | 42 | 312 | 2.0 | 2.0 | 0.00 | 0.00 | 0.00 | 61 | 1013.4 |
| 20260507131400 | 41 | 163 | 0.0 | 0.0 | 0.00 | 0.00 | 0.00 | 63 | 1013.5 |
| 20260507130857 | 41 | 162 | 0.0 | 0.0 | 0.00 | 0.00 | 0.00 | 65 | 1013.5 |
| 20260507130354 | 40 | 94 | 2.0 | 2.0 | 0.00 | 0.00 | 0.00 | 67 | 1013.5 |
| 20260507125853 | 39 | 177 | 0.0 | 0.0 | 0.00 | 0.00 | 0.00 | 70 | 1013.5 |
| 20260507125350 | 38 | 168 | 0.0 | 0.0 | 0.00 | 0.00 | 0.00 | 75 | 1013.6 |
| 20260507124848 | 38 | 154 | 0.0 | 0.0 | 0.00 | 0.00 | 0.00 | 78 | 1013.6 |
| 20260507124344 | 37 | 167 | 0.0 | 0.0 | 0.00 | 0.00 | 0.00 | 83 | 1013.6 |
| 20260507123843 | 36 | 164 | 0.0 | 0.0 | 0.00 | 0.00 | 0.00 | 87 | 1013.6 |
| 20260507123339 | 35 | 164 | 0.0 | 0.0 | 0.00 | 0.00 | 0.00 | 90 | 1013.6 |
| 20260507122835 | 34 | 167 | 0.0 | 0.0 | 0.00 | 0.00 | 0.00 | 93 | 1013.7 |
| 20260507122331 | 32 | 164 | 0.0 | 0.0 | 0.00 | 0.00 | 0.00 | 95 | 1013.7 |
| 20260507121828 | 31 | 163 | 0.0 | 0.0 | 0.00 | 0.00 | 0.00 | 94 | 1013.7 |
| 20260507121323 | 30 | 163 | 0.0 | 0.0 | 0.00 | 0.00 | 0.00 | 94 | 1013.7 |
| 20260507120820 | 30 | 163 | 0.0 | 0.0 | 0.00 | 0.00 | 0.00 | 94 | 1013.6 |
| 20260507120316 | 29 | 163 | 0.0 | 0.0 | 0.00 | 0.00 | 0.00 | 93 | 1013.6 |
| 20260507115812 | 29 | 163 | 0.0 | 0.0 | 0.00 | 0.00 | 0.00 | 93 | 1013.7 |
| 20260507115308 | 29 | 163 | 0.0 | 0.0 | 0.00 | 0.00 | 0.00 | 93 | 1013.7 |
| 20260507114804 | 29 | 163 | 0.0 | 0.0 | 0.00 | 0.00 | 0.00 | 93 | 1013.5 |
| 20260507114301 | 28 | 163 | 0.0 | 0.0 | 0.00 | 0.00 | 0.00 | 93 | 1013.6 |
| 20260507113759 | 28 | 163 | 0.0 | 0.0 | 0.00 | 0.00 | 0.00 | 93 | 1013.7 |
| 20260507113256 | 28 | 163 | 0.0 | 0.0 | 0.00 | 0.00 | 0.00 | 92 | 1013.7 |
| 20260507112753 | 28 | 163 | 0.0 | 0.0 | 0.00 | 0.00 | 0.00 | 92 | 1013.6 |
| 20260507112250 | 28 | 163 | 0.0 | 0.0 | 0.00 | 0.00 | 0.00 | 92 | 1013.2 |
| 20260507111748 | 28 | 163 | 0.0 | 0.0 | 0.00 | 0.00 | 0.00 | 92 | 1013.5 |
| 20260507111244 | 28 | 163 | 0.0 | 0.0 | 0.00 | 0.00 | 0.00 | 92 | 1013.5 |
| 20260507110740 | 28 | 160 | 0.0 | 0.0 | 0.00 | 0.00 | 0.00 | 92 | 1013.5 |
| 20260507110237 | 28 | 159 | 0.0 | 0.0 | 0.00 | 0.00 | 0.00 | 92 | 1013.2 |
| 20260507105734 | 28 | 167 | 0.0 | 0.0 | 0.00 | 0.00 | 0.00 | 92 | 1013.5 |
| 20260507105230 | 28 | 167 | 0.0 | 0.0 | 0.00 | 0.00 | 0.00 | 92 | 1013.5 |
| 20260507104727 | 29 | 167 | 0.0 | 0.0 | 0.00 | 0.00 | 0.00 | 92 | 1013.5 |
| 20260507104224 | 28 | 167 | 0.0 | 0.0 | 0.00 | 0.00 | 0.00 | 92 | 1013.4 |
| 20260507103720 | 28 | 167 | 0.0 | 0.0 | 0.00 | 0.00 | 0.00 | 91 | 1013.4 |
| 20260507103216 | 28 | 167 | 0.0 | 0.0 | 0.00 | 0.00 | 0.00 | 91 | 1013.4 |
| 20260507102713 | 28 | 167 | 0.0 | 0.0 | 0.00 | 0.00 | 0.00 | 91 | 1013.3 |
| 20260507102209 | 29 | 167 | 0.0 | 0.0 | 0.00 | 0.00 | 0.00 | 91 | 1013.3 |
| 20260507101705 | 29 | 167 | 0.0 | 0.0 | 0.00 | 0.00 | 0.00 | 91 | 1013.3 |
| 20260507101201 | 29 | 167 | 0.0 | 0.0 | 0.00 | 0.00 | 0.00 | 90 | 1013.5 |
| 20260507100658 | 29 | 167 | 0.0 | 0.0 | 0.00 | 0.00 | 0.00 | 90 | 1013.6 |
| 20260507100157 | 29 | 167 | 0.0 | 0.0 | 0.00 | 0.00 | 0.00 | 90 | 1013.5 |
| 20260507095654 | 29 | 167 | 0.0 | 0.0 | 0.00 | 0.00 | 0.00 | 90 | 1013.5 |
| 20260507095151 | 29 | 167 | 0.0 | 0.0 | 0.00 | 0.00 | 0.00 | 90 | 1013.6 |
| 20260507094647 | 29 | 167 | 0.0 | 0.0 | 0.00 | 0.00 | 0.00 | 89 | 1013.7 |
| 20260507094144 | 29 | 167 | 0.0 | 0.0 | 0.00 | 0.00 | 0.00 | 89 | 1013.5 |
| 20260507093642 | 29 | 167 | 0.0 | 0.0 | 0.00 | 0.00 | 0.00 | 89 | 1013.5 |
| 20260507093141 | 29 | 167 | 0.0 | 0.0 | 0.00 | 0.00 | 0.00 | 89 | 1013.5 |
| 20260507092636 | 30 | 167 | 0.0 | 0.0 | 0.00 | 0.00 | 0.00 | 89 | 1013.6 |
| 20260507092133 | 29 | 167 | 0.0 | 0.0 | 0.00 | 0.00 | 0.00 | 89 | 1013.7 |
| 20260507091629 | 30 | 167 | 0.0 | 0.0 | 0.00 | 0.00 | 0.00 | 88 | 1013.7 |
| 20260507091125 | 29 | 167 | 0.0 | 0.0 | 0.00 | 0.00 | 0.00 | 88 | 1013.6 |
| 20260507090621 | 30 | 167 | 0.0 | 0.0 | 0.00 | 0.00 | 0.00 | 88 | 1013.6 |
| 20260507090119 | 29 | 167 | 0.0 | 0.0 | 0.00 | 0.00 | 0.00 | 88 | 1013.7 |
| 20260507085616 | 29 | 167 | 0.0 | 0.0 | 0.00 | 0.00 | 0.00 | 88 | 1013.5 |
| 20260507085112 | 29 | 167 | 0.0 | 0.0 | 0.00 | 0.00 | 0.00 | 87 | 1013.7 |
| 20260507084609 | 29 | 167 | 0.0 | 0.0 | 0.00 | 0.00 | 0.00 | 87 | 1013.7 |
| 20260507084106 | 29 | 167 | 0.0 | 0.0 | 0.00 | 0.00 | 0.00 | 87 | 1013.7 |
| 20260507083603 | 30 | 167 | 0.0 | 0.0 | 0.00 | 0.00 | 0.00 | 86 | 1013.6 |
| 20260507083100 | 30 | 167 | 0.0 | 0.0 | 0.00 | 0.00 | 0.00 | 86 | 1013.6 |
| 20260507082555 | 30 | 167 | 0.0 | 0.0 | 0.00 | 0.00 | 0.00 | 87 | 1013.5 |
| 20260507082052 | 30 | 167 | 0.0 | 0.0 | 0.00 | 0.00 | 0.00 | 86 | 1013.5 |
| 20260507081548 | 30 | 167 | 0.0 | 0.0 | 0.00 | 0.00 | 0.00 | 86 | 1013.6 |
| 20260507081045 | 30 | 167 | 0.0 | 0.0 | 0.00 | 0.00 | 0.00 | 86 | 1013.8 |
| 20260507080541 | 30 | 167 | 0.0 | 0.0 | 0.00 | 0.00 | 0.00 | 86 | 1013.6 |
| 20260507080038 | 30 | 167 | 0.0 | 0.0 | 0.00 | 0.00 | 0.00 | 85 | 1013.7 |
| 20260507075533 | 30 | 167 | 0.0 | 0.0 | 0.00 | 0.00 | 0.00 | 85 | 1013.6 |
| 20260507075030 | 30 | 167 | 0.0 | 0.0 | 0.00 | 0.00 | 0.00 | 85 | 1013.9 |
| 20260507074526 | 31 | 167 | 0.0 | 0.0 | 0.00 | 0.00 | 0.00 | 85 | 1013.9 |
| 20260507074025 | 31 | 167 | 0.0 | 0.0 | 0.00 | 0.00 | 0.00 | 85 | 1013.9 |
| 20260507073521 | 30 | 167 | 0.0 | 0.0 | 0.00 | 0.00 | 0.00 | 85 | 1013.8 |
| 20260507073018 | 30 | 167 | 0.0 | 0.0 | 0.00 | 0.00 | 0.00 | 84 | 1013.7 |
| 20260507072515 | 30 | 167 | 0.0 | 0.0 | 0.00 | 0.00 | 0.00 | 83 | 1013.9 |
| 20260507072012 | 30 | 167 | 0.0 | 0.0 | 0.00 | 0.00 | 0.00 | 83 | 1013.7 |
| 20260507071509 | 30 | 167 | 0.0 | 0.0 | 0.00 | 0.00 | 0.00 | 82 | 1014.0 |
| 20260507071006 | 31 | 167 | 0.0 | 0.0 | 0.00 | 0.00 | 0.00 | 81 | 1014.0 |
| 20260507070503 | 31 | 167 | 0.0 | 0.0 | 0.00 | 0.00 | 0.00 | 81 | 1014.0 |
| 20260507070000 | 32 | 167 | 0.0 | 0.0 | 0.00 | 0.00 | 0.00 | 80 | 1014.1 |
| 20260507065456 | 32 | 167 | 0.0 | 0.0 | 0.00 | 0.00 | 0.00 | 80 | 1014.3 |
| 20260507064953 | 32 | 167 | 0.0 | 0.0 | 0.00 | 0.00 | 0.00 | 79 | 1014.1 |
| 20260507064452 | 32 | 167 | 0.0 | 0.0 | 0.00 | 0.00 | 0.00 | 78 | 1014.3 |
| 20260507063949 | 33 | 167 | 0.0 | 0.0 | 0.00 | 0.00 | 0.00 | 78 | 1014.4 |
| 20260507063446 | 33 | 167 | 0.0 | 0.0 | 0.00 | 0.00 | 0.00 | 77 | 1014.3 |
| 20260507062943 | 33 | 167 | 0.0 | 0.0 | 0.00 | 0.00 | 0.00 | 77 | 1014.3 |
| 20260507062440 | 33 | 167 | 0.0 | 0.0 | 0.00 | 0.00 | 0.00 | 76 | 1014.5 |
| 20260507061937 | 33 | 167 | 0.0 | 0.0 | 0.00 | 0.00 | 0.00 | 75 | 1014.4 |
| 20260507061435 | 33 | 167 | 0.0 | 0.0 | 0.00 | 0.00 | 0.00 | 74 | 1014.4 |
| 20260507060934 | 34 | 167 | 0.0 | 0.0 | 0.00 | 0.00 | 0.00 | 74 | 1014.6 |
| 20260507060430 | 34 | 167 | 0.0 | 0.0 | 0.00 | 0.00 | 0.00 | 73 | 1014.6 |
| 20260507055927 | 35 | 167 | 0.0 | 0.0 | 0.00 | 0.00 | 0.00 | 72 | 1014.4 |
| 20260507055422 | 35 | 167 | 0.0 | 0.0 | 0.00 | 0.00 | 0.00 | 72 | 1014.5 |
| 20260507054919 | 35 | 167 | 0.0 | 0.0 | 0.00 | 0.00 | 0.00 | 71 | 1014.4 |
| 20260507054415 | 36 | 167 | 0.0 | 0.0 | 0.00 | 0.00 | 0.00 | 70 | 1014.6 |
| 20260507053913 | 36 | 167 | 0.0 | 0.0 | 0.00 | 0.00 | 0.00 | 70 | 1014.7 |
| 20260507053410 | 37 | 167 | 0.0 | 0.0 | 0.00 | 0.00 | 0.00 | 68 | 1014.5 |
| 20260507052909 | 37 | 167 | 0.0 | 0.0 | 0.00 | 0.00 | 0.00 | 66 | 1014.7 |
| 20260507052406 | 38 | 167 | 0.0 | 0.0 | 0.00 | 0.00 | 0.00 | 66 | 1014.5 |
| 20260507051903 | 39 | 167 | 0.0 | 0.0 | 0.00 | 0.00 | 0.00 | 65 | 1014.7 |
| 20260507051400 | 39 | 167 | 0.0 | 0.0 | 0.00 | 0.00 | 0.00 | 65 | 1014.6 |
| 20260507050857 | 39 | 167 | 0.0 | 0.0 | 0.00 | 0.00 | 0.00 | 65 | 1014.6 |
| 20260507050354 | 39 | 167 | 0.0 | 0.0 | 0.00 | 0.00 | 0.00 | 65 | 1014.6 |
| 20260507045850 | 39 | 167 | 0.0 | 0.0 | 0.00 | 0.00 | 0.00 | 64 | 1014.7 |
| 20260507045347 | 39 | 167 | 0.0 | 0.0 | 0.00 | 0.00 | 0.00 | 64 | 1014.6 |
| 20260507044844 | 39 | 167 | 0.0 | 0.0 | 0.00 | 0.00 | 0.00 | 63 | 1014.7 |
| 20260507044341 | 40 | 167 | 0.0 | 0.0 | 0.00 | 0.00 | 0.00 | 62 | 1014.8 |
| 20260507043837 | 40 | 167 | 0.0 | 0.0 | 0.00 | 0.00 | 0.00 | 61 | 1014.8 |
| 20260507043334 | 40 | 167 | 0.0 | 0.0 | 0.00 | 0.00 | 0.00 | 62 | 1014.9 |
| 20260507042830 | 40 | 167 | 0.0 | 0.0 | 0.00 | 0.00 | 0.00 | 61 | 1014.9 |
| 20260507042325 | 39 | 167 | 0.0 | 0.0 | 0.00 | 0.00 | 0.00 | 59 | 1014.8 |
| 20260507041823 | 39 | 167 | 0.0 | 0.0 | 0.00 | 0.00 | 0.00 | 59 | 1015.0 |
| 20260507041319 | 39 | 167 | 0.0 | 0.0 | 0.00 | 0.00 | 0.00 | 59 | 1015.0 |
| 20260507040816 | 39 | 167 | 0.0 | 0.0 | 0.00 | 0.00 | 0.00 | 60 | 1015.0 |
| 20260507040312 | 39 | 167 | 0.0 | 0.0 | 0.00 | 0.00 | 0.00 | 60 | 1015.1 |
| 20260507035808 | 39 | 167 | 0.0 | 0.0 | 0.00 | 0.00 | 0.00 | 61 | 1015.1 |
| 20260507035306 | 38 | 167 | 0.0 | 0.0 | 0.00 | 0.00 | 0.00 | 63 | 1015.2 |
| 20260507034802 | 39 | 167 | 0.0 | 0.0 | 0.00 | 0.00 | 0.00 | 63 | 1015.1 |
| 20260507034258 | 38 | 167 | 0.0 | 0.0 | 0.00 | 0.00 | 0.00 | 64 | 1015.2 |
| 20260507033757 | 38 | 166 | 0.0 | 0.0 | 0.00 | 0.00 | 0.00 | 65 | 1015.0 |
| 20260507033254 | 37 | 167 | 0.0 | 0.0 | 0.00 | 0.00 | 0.00 | 64 | 1015.0 |
| 20260507032751 | 37 | 167 | 0.0 | 0.0 | 0.00 | 0.00 | 0.00 | 64 | 1015.2 |
| 20260507032247 | 37 | 167 | 0.0 | 0.0 | 0.00 | 0.00 | 0.00 | 65 | 1015.2 |
| 20260507031743 | 37 | 167 | 0.0 | 0.0 | 0.00 | 0.00 | 0.00 | 66 | 1015.1 |
| 20260507031241 | 37 | 167 | 0.0 | 0.0 | 0.00 | 0.00 | 0.00 | 66 | 1015.2 |
| 20260507030737 | 37 | 167 | 0.0 | 0.0 | 0.00 | 0.00 | 0.00 | 66 | 1015.3 |
| 20260507030235 | 36 | 167 | 0.0 | 0.0 | 0.00 | 0.00 | 0.00 | 65 | 1015.4 |
| 20260507025732 | 36 | 167 | 0.0 | 0.0 | 0.00 | 0.00 | 0.00 | 65 | 1015.2 |
| 20260507025229 | 36 | 167 | 0.0 | 0.0 | 0.00 | 0.00 | 0.00 | 65 | 1015.3 |
| 20260507024727 | 36 | 167 | 0.0 | 0.0 | 0.00 | 0.00 | 0.00 | 64 | 1015.1 |
| 20260507024224 | 36 | 167 | 0.0 | 0.0 | 0.00 | 0.00 | 0.00 | 64 | 1015.5 |
| 20260507023719 | 36 | 167 | 0.0 | 0.0 | 0.00 | 0.00 | 0.00 | 63 | 1015.4 |
| 20260507023216 | 36 | 167 | 0.0 | 0.0 | 0.00 | 0.00 | 0.00 | 63 | 1015.5 |
| 20260507022714 | 37 | 167 | 0.0 | 0.0 | 0.00 | 0.00 | 0.00 | 61 | 1015.2 |
| 20260507022209 | 37 | 167 | 0.0 | 0.0 | 0.00 | 0.00 | 0.00 | 60 | 1015.2 |
| 20260507021706 | 37 | 167 | 0.0 | 0.0 | 0.00 | 0.00 | 0.00 | 60 | 1015.4 |
| 20260507021201 | 38 | 167 | 0.0 | 0.0 | 0.00 | 0.00 | 0.00 | 60 | 1015.3 |
| 20260507020701 | 38 | 167 | 0.0 | 0.0 | 0.00 | 0.00 | 0.00 | 59 | 1015.3 |
| 20260507020156 | 39 | 166 | 0.0 | 0.0 | 0.00 | 0.00 | 0.00 | 58 | 1015.3 |
| 20260507015654 | 39 | 166 | 0.0 | 0.0 | 0.00 | 0.00 | 0.00 | 57 | 1015.4 |
| 20260507015151 | 39 | 166 | 0.0 | 0.0 | 0.00 | 0.00 | 0.00 | 56 | 1015.4 |
| 20260507014648 | 40 | 169 | 0.0 | 0.0 | 0.00 | 0.00 | 0.00 | 56 | 1015.2 |
| 20260507014144 | 41 | 161 | 0.0 | 0.0 | 0.00 | 0.00 | 0.00 | 55 | 1015.4 |
| 20260507013641 | 41 | 169 | 0.0 | 0.0 | 0.00 | 0.00 | 0.00 | 53 | 1015.2 |
| 20260507013138 | 42 | 168 | 0.0 | 0.0 | 0.00 | 0.00 | 0.00 | 52 | 1015.2 |
| 20260507012635 | 42 | 174 | 0.0 | 0.0 | 0.00 | 0.00 | 0.00 | 51 | 1015.3 |
| 20260507012130 | 42 | 172 | 0.0 | 0.0 | 0.00 | 0.00 | 0.00 | 51 | 1015.3 |
| 20260507011629 | 43 | 163 | 0.0 | 0.0 | 0.00 | 0.00 | 0.00 | 51 | 1015.5 |
| 20260507011125 | 43 | 169 | 0.0 | 0.0 | 0.00 | 0.00 | 0.00 | 50 | 1015.2 |
| 20260507010620 | 44 | 128 | 0.0 | 2.0 | 0.00 | 0.00 | 0.00 | 49 | 1015.4 |
| 20260507010116 | 44 | 166 | 0.0 | 2.0 | 0.00 | 0.00 | 0.00 | 49 | 1015.3 |
| 20260507005613 | 44 | 179 | 0.0 | 0.0 | 0.00 | 0.00 | 0.00 | 48 | 1015.3 |
| 20260507005109 | 45 | 168 | 1.0 | 2.0 | 0.00 | 0.00 | 0.00 | 47 | 1015.5 |
| 20260507004606 | 45 | 179 | 2.0 | 3.0 | 0.00 | 0.00 | 0.00 | 46 | 1015.3 |
| 20260507004104 | 46 | 157 | 2.0 | 3.0 | 0.00 | 0.00 | 0.00 | 45 | 1015.4 |
| 20260507003600 | 46 | 158 | 1.0 | 2.0 | 0.00 | 0.00 | 0.00 | 45 | 1015.3 |
| 20260507003055 | 46 | 7 | 4.0 | 5.0 | 0.00 | 0.00 | 0.00 | 46 | 1015.6 |
| 20260507002552 | 45 | 323 | 2.0 | 5.0 | 0.00 | 0.00 | 0.00 | 46 | 1015.5 |
| 20260507002047 | 45 | 202 | 1.0 | 2.0 | 0.00 | 0.00 | 0.00 | 46 | 1015.4 |
| 20260507001544 | 45 | 172 | 0.0 | 2.0 | 0.00 | 0.00 | 0.00 | 47 | 1015.4 |
| 20260507001042 | 46 | 170 | 2.0 | 2.0 | 0.00 | 0.00 | 0.00 | 46 | 1015.6 |
| 20260507000538 | 46 | 89 | 2.0 | 5.0 | 0.00 | 0.00 | 0.00 | 46 | 1015.4 |
| 20260507000033 | 46 | 349 | 1.0 | 3.0 | 0.00 | 0.00 | 0.00 | 47 | 1015.4 |
| 20260506235531 | 46 | 168 | 0.0 | 0.0 | 0.00 | 0.00 | 0.00 | 47 | 1015.5 |
| 20260506235021 | 46 | 183 | 1.0 | 2.0 | 0.00 | 0.00 | 0.00 | 47 | 1015.5 |
| 20260506234519 | 46 | 151 | 0.0 | 2.0 | 0.00 | 0.00 | 0.00 | 47 | 1015.4 |
| 20260506234016 | 46 | 188 | 3.0 | 3.0 | 0.00 | 0.00 | 0.00 | 46 | 1015.5 |
| 20260506233512 | 46 | 157 | 3.0 | 5.0 | 0.00 | 0.00 | 0.00 | 46 | 1015.6 |
| 20260506233009 | 46 | 91 | 3.0 | 3.0 | 0.00 | 0.00 | 0.00 | 45 | 1015.5 |
| 20260506232506 | 46 | 250 | 2.0 | 3.0 | 0.00 | 0.00 | 0.00 | 45 | 1015.5 |
| 20260506232001 | 46 | 200 | 0.0 | 0.0 | 0.00 | 0.00 | 0.00 | 47 | 1015.7 |
| 20260506231459 | 46 | 187 | 0.0 | 2.0 | 0.00 | 0.00 | 0.00 | 46 | 1015.7 |
| 20260506230956 | 46 | 224 | 4.0 | 5.0 | 0.00 | 0.00 | 0.00 | 46 | 1015.8 |
| 20260506230452 | 46 | 330 | 5.0 | 7.0 | 0.00 | 0.00 | 0.00 | 46 | 1015.7 |
| 20260506225949 | 46 | 346 | 5.0 | 7.0 | 0.00 | 0.00 | 0.00 | 46 | 1015.6 |
| 20260506225447 | 46 | 199 | 2.0 | 2.0 | 0.00 | 0.00 | 0.00 | 46 | 1015.7 |
| 20260506224943 | 46 | 351 | 4.0 | 5.0 | 0.00 | 0.00 | 0.00 | 46 | 1015.7 |
| 20260506224440 | 46 | 165 | 4.0 | 7.0 | 0.00 | 0.00 | 0.00 | 46 | 1015.9 |
| 20260506223936 | 47 | 175 | 1.0 | 2.0 | 0.00 | 0.00 | 0.00 | 46 | 1015.8 |
| 20260506223432 | 47 | 181 | 1.0 | 2.0 | 0.00 | 0.00 | 0.00 | 46 | 1015.7 |
| 20260506222929 | 46 | 173 | 1.0 | 2.0 | 0.00 | 0.00 | 0.00 | 48 | 1015.7 |
| 20260506222425 | 46 | 176 | 2.0 | 2.0 | 0.00 | 0.00 | 0.00 | 46 | 1015.7 |
| 20260506221923 | 46 | 180 | 1.0 | 2.0 | 0.00 | 0.00 | 0.00 | 46 | 1015.8 |
| 20260506221420 | 46 | 197 | 1.0 | 2.0 | 0.00 | 0.00 | 0.00 | 47 | 1015.8 |
| 20260506220918 | 46 | 317 | 3.0 | 5.0 | 0.00 | 0.00 | 0.00 | 45 | 1015.7 |
| 20260506220413 | 46 | 150 | 2.0 | 3.0 | 0.00 | 0.00 | 0.00 | 46 | 1015.8 |
| 20260506215910 | 46 | 355 | 4.0 | 5.0 | 0.00 | 0.00 | 0.00 | 46 | 1015.8 |
| 20260506215406 | 46 | 172 | 2.0 | 2.0 | 0.00 | 0.00 | 0.00 | 48 | 1016.0 |
| 20260506214902 | 46 | 240 | 4.0 | 7.0 | 0.00 | 0.00 | 0.00 | 46 | 1016.0 |
| 20260506214359 | 46 | 177 | 1.0 | 2.0 | 0.00 | 0.00 | 0.00 | 46 | 1016.1 |
| 20260506213857 | 46 | 192 | 2.0 | 3.0 | 0.00 | 0.00 | 0.00 | 46 | 1016.0 |
| 20260506213354 | 46 | 196 | 2.0 | 3.0 | 0.00 | 0.00 | 0.00 | 46 | 1016.2 |
| 20260506212851 | 47 | 158 | 2.0 | 3.0 | 0.00 | 0.00 | 0.00 | 45 | 1016.3 |
| 20260506212346 | 47 | 236 | 0.0 | 2.0 | 0.00 | 0.00 | 0.00 | 46 | 1016.2 |
| 20260506211841 | 46 | 180 | 2.0 | 2.0 | 0.00 | 0.00 | 0.00 | 46 | 1016.2 |
| 20260506211338 | 46 | 181 | 0.0 | 0.0 | 0.00 | 0.00 | 0.00 | 47 | 1016.3 |
| 20260506210835 | 46 | 258 | 3.0 | 5.0 | 0.00 | 0.00 | 0.00 | 47 | 1016.1 |
| 20260506210332 | 46 | 259 | 2.0 | 3.0 | 0.00 | 0.00 | 0.00 | 47 | 1016.2 |
| 20260506205829 | 46 | 192 | 1.0 | 2.0 | 0.00 | 0.00 | 0.00 | 49 | 1016.4 |
| 20260506205325 | 46 | 348 | 3.0 | 3.0 | 0.00 | 0.00 | 0.00 | 48 | 1016.4 |
| 20260506204822 | 45 | 358 | 6.0 | 9.0 | 0.00 | 0.00 | 0.00 | 48 | 1016.5 |
| 20260506204320 | 45 | 26 | 2.0 | 5.0 | 0.00 | 0.00 | 0.00 | 48 | 1016.4 |
| 20260506203817 | 46 | 193 | 2.0 | 3.0 | 0.00 | 0.00 | 0.00 | 48 | 1016.5 |
| 20260506203314 | 46 | 168 | 2.0 | 3.0 | 0.00 | 0.00 | 0.00 | 47 | 1016.4 |
| 20260506202811 | 45 | 80 | 4.0 | 5.0 | 0.00 | 0.00 | 0.00 | 47 | 1016.3 |
| 20260506202308 | 46 | 274 | 2.0 | 3.0 | 0.00 | 0.00 | 0.00 | 47 | 1016.4 |
| 20260506201804 | 45 | 169 | 2.0 | 2.0 | 0.00 | 0.00 | 0.00 | 48 | 1016.6 |
| 20260506201302 | 45 | 311 | 2.0 | 3.0 | 0.00 | 0.00 | 0.00 | 49 | 1016.6 |
| 20260506200759 | 46 | 316 | 3.0 | 5.0 | 0.00 | 0.00 | 0.00 | 47 | 1016.6 |
| 20260506200255 | 46 | 6 | 4.0 | 5.0 | 0.00 | 0.00 | 0.00 | 49 | 1016.3 |
| 20260506195751 | 45 | 177 | 2.0 | 2.0 | 0.00 | 0.00 | 0.00 | 48 | 1016.5 |
| 20260506195248 | 45 | 243 | 2.0 | 3.0 | 0.00 | 0.00 | 0.00 | 49 | 1016.6 |
| 20260506194745 | 45 | 173 | 2.0 | 2.0 | 0.00 | 0.00 | 0.00 | 50 | 1016.5 |
| 20260506194241 | 44 | 359 | 3.0 | 5.0 | 0.00 | 0.00 | 0.00 | 50 | 1016.5 |
| 20260506193739 | 44 | 186 | 1.0 | 2.0 | 0.00 | 0.00 | 0.00 | 51 | 1016.6 |
| 20260506193236 | 44 | 250 | 2.0 | 3.0 | 0.00 | 0.00 | 0.00 | 49 | 1016.6 |
| 20260506192732 | 44 | 169 | 4.0 | 7.0 | 0.00 | 0.00 | 0.00 | 49 | 1016.6 |
| 20260506192229 | 44 | 269 | 2.0 | 3.0 | 0.00 | 0.00 | 0.00 | 49 | 1016.8 |
| 20260506191726 | 44 | 235 | 2.0 | 3.0 | 0.00 | 0.00 | 0.00 | 49 | 1016.6 |
| 20260506191222 | 44 | 7 | 2.0 | 3.0 | 0.00 | 0.00 | 0.00 | 48 | 1016.6 |
| 20260506190719 | 44 | 18 | 3.0 | 5.0 | 0.00 | 0.00 | 0.00 | 49 | 1016.7 |
| 20260506190216 | 44 | 167 | 0.0 | 0.0 | 0.00 | 0.00 | 0.00 | 49 | 1016.5 |
| 20260506185713 | 44 | 168 | 3.0 | 3.0 | 0.00 | 0.00 | 0.00 | 48 | 1016.5 |
| 20260506185209 | 44 | 232 | 1.0 | 2.0 | 0.00 | 0.00 | 0.00 | 48 | 1016.5 |
| 20260506184707 | 45 | 330 | 5.0 | 9.0 | 0.00 | 0.00 | 0.00 | 48 | 1016.6 |
| 20260506184204 | 45 | 185 | 0.0 | 0.0 | 0.00 | 0.00 | 0.00 | 48 | 1016.5 |
| 20260506183701 | 44 | 48 | 4.0 | 5.0 | 0.00 | 0.00 | 0.00 | 48 | 1016.5 |
| 20260506183156 | 43 | 134 | 1.0 | 2.0 | 0.00 | 0.00 | 0.00 | 50 | 1016.8 |
| 20260506182654 | 43 | 139 | 0.0 | 2.0 | 0.00 | 0.00 | 0.00 | 50 | 1016.7 |
| 20260506182152 | 43 | 312 | 3.0 | 5.0 | 0.00 | 0.00 | 0.00 | 48 | 1016.6 |
| 20260506181649 | 44 | 269 | 5.0 | 7.0 | 0.00 | 0.00 | 0.00 | 48 | 1016.7 |
| 20260506181146 | 44 | 341 | 5.0 | 7.0 | 0.00 | 0.00 | 0.00 | 48 | 1016.9 |
| 20260506180643 | 44 | 73 | 3.0 | 5.0 | 0.00 | 0.00 | 0.00 | 48 | 1016.5 |
| 20260506180139 | 44 | 159 | 2.0 | 2.0 | 0.00 | 0.00 | 0.00 | 50 | 1016.7 |
| 20260506175636 | 43 | 183 | 2.0 | 2.0 | 0.00 | 0.00 | 0.00 | 50 | 1016.7 |
| 20260506175132 | 43 | 247 | 2.0 | 3.0 | 0.00 | 0.00 | 0.00 | 49 | 1016.9 |
| 20260506174631 | 43 | 296 | 5.0 | 7.0 | 0.00 | 0.00 | 0.00 | 49 | 1016.9 |
| 20260506174127 | 43 | 205 | 2.0 | 2.0 | 0.00 | 0.00 | 0.00 | 50 | 1016.8 |
| 20260506173625 | 43 | 31 | 4.0 | 5.0 | 0.00 | 0.00 | 0.00 | 50 | 1016.9 |
| 20260506173121 | 43 | 337 | 2.0 | 3.0 | 0.00 | 0.00 | 0.00 | 49 | 1017.1 |
| 20260506172619 | 43 | 168 | 2.0 | 3.0 | 0.00 | 0.00 | 0.00 | 49 | 1016.9 |
| 20260506172115 | 43 | 39 | 2.0 | 3.0 | 0.00 | 0.00 | 0.00 | 51 | 1016.9 |
| 20260506171613 | 43 | 162 | 3.0 | 5.0 | 0.00 | 0.00 | 0.00 | 49 | 1017.1 |
| 20260506171111 | 43 | 32 | 2.0 | 3.0 | 0.00 | 0.00 | 0.00 | 49 | 1017.1 |
| 20260506170608 | 42 | 258 | 1.0 | 2.0 | 0.00 | 0.00 | 0.00 | 51 | 1017.3 |
| 20260506170105 | 42 | 248 | 3.0 | 5.0 | 0.00 | 0.00 | 0.00 | 51 | 1017.2 |
| 20260506165603 | 43 | 203 | 3.0 | 5.0 | 0.00 | 0.00 | 0.00 | 49 | 1017.3 |
| 20260506165059 | 42 | 183 | 1.0 | 2.0 | 0.00 | 0.00 | 0.00 | 51 | 1017.4 |
| 20260506164556 | 42 | 142 | 1.0 | 2.0 | 0.00 | 0.00 | 0.00 | 52 | 1017.3 |
| 20260506164053 | 42 | 14 | 3.0 | 5.0 | 0.00 | 0.00 | 0.00 | 50 | 1017.2 |
| 20260506163549 | 42 | 101 | 4.0 | 5.0 | 0.00 | 0.00 | 0.00 | 50 | 1017.3 |
| 20260506163046 | 42 | 201 | 2.0 | 2.0 | 0.00 | 0.00 | 0.00 | 51 | 1017.2 |
| 20260506162542 | 42 | 352 | 4.0 | 9.0 | 0.00 | 0.00 | 0.00 | 50 | 1017.2 |
| 20260506162039 | 42 | 14 | 5.0 | 10.0 | 0.00 | 0.00 | 0.00 | 50 | 1017.2 |